Lapse_Rate
4.8 5.2 5.1 4.2 4.4 4.1 4.2 4.0 3.3 2.9 2.7 2.4 2.3 1.8 1.2 0.2 0.2 3.5 4.6 4.9 3.4 1.7 1.6 4.5 5.2 4.7 4.6 5.3 4.8 4.1 6.5 6.5 6.5 6.5 6.5 6.9 6.6 6.6 5.7 6.4 5.8 6.0 5.6 4.6 1.5
4.7 4.8 4.3 3.8 3.0 3.7 4.3 4.1 3.8 3.6 3.1 2.8 2.6 2.2 1.6 0.5 1.8 3.0 3.7 2.8 2.6 2.8 5.2 5.6 6.0 5.6 5.9 5.9 5.7 6.7 6.5 6.5 6.6 6.6 6.5 6.8 6.9 7.0 6.9 6.7 6.4 5.9 4.0 1.4 1.3
4.9 4.6 4.7 4.5 5.1 4.4 4.2 4.3 3.7 3.5 3.5 3.2 2.9 2.6 2.2 1.2 5.0 5.6 3.4 2.7 2.9 3.3 4.3 4.9 5.4 6.1 6.6 6.1 6.3 6.7 6.5 6.5 6.7 6.7 6.7 6.8 6.8 6.3 6.8 6.5 6.5 6.6 6.0 3.0 2.1
5.7 4.3 4.5 4.6 4.7 5.6 4.4 4.6 4.2 3.7 3.6 3.5 3.2 3.1 2.8 4.3 6.5 5.6 3.9 3.8 3.9 4.0 5.6 5.7 6.2 6.3 6.7 6.5 6.4 6.5 6.8 6.8 6.9 5.8 6.6 6.7 7.1 6.8 6.9 6.8 6.6 5.9 5.8 4.2 3.6
5.9 5.4 4.1 4.6 4.3 4.2 5.9 5.1 5.1 3.9 3.9 3.8 3.8 3.7 4.6 6.2 5.7 3.7 3.7 4.4 5.0 5.5 5.9 6.1 6.3 6.1 6.5 6.7 6.8 6.5 6.6 6.7 6.2 5.5 5.8 5.7 6.8 6.6 6.7 6.1 5.4 4.8 4.1 4.5 4.6
6.8 5.5 5.2 4.8 4.7 4.3 4.7 5.3 5.9 5.0 4.3 4.1 4.2 4.3 5.6 6.7 5.7 3.0 2.2 4.1 5.1 5.6 5.6 5.9 5.9 5.7 6.6 6.7 6.6 6.6 6.8 6.8 6.1 6.5 6.5 6.6 6.7 6.4 6.6 5.1 5.2 4.8 5.3 5.0 4.0
6.9 5.9 5.5 5.7 4.3 4.7 4.5 5.2 6.6 6.5 5.1 4.5 4.3 5.0 5.7 6.5 5.0 2.9 3.2 4.5 4.5 5.1 5.7 5.5 5.7 6.2 6.2 6.6 6.4 6.7 6.5 6.5 6.7 6.9 6.6 6.7 6.5 6.5 6.1 5.0 5.3 5.6 5.5 5.0 4.1
7.2 6.5 6.0 5.5 5.5 3.8 4.9 5.0 6.0 7.3 5.0 5.1 5.0 5.6 6.4 5.6 4.6 4.1 4.3 5.6 4.9 4.9 5.7 6.0 6.3 6.1 6.5 6.5 6.7 6.5 6.5 6.5 6.5 6.7 6.5 6.7 6.5 6.5 5.6 6.5 7.1 6.2 5.8 5.1 5.3
7.2 7.0 5.9 5.6 5.4 4.3 4.4 4.6 5.7 6.8 4.9 5.4 5.9 6.5 6.6 6.1 4.8 4.8 4.5 6.2 5.8 6.3 6.4 6.8 6.8 6.2 6.6 6.5 6.5 6.5 6.5 6.5 6.5 6.7 6.5 6.5 6.5 6.6 6.1 6.4 7.0 7.0 6.4 5.0 4.9
7.5 7.1 6.3 6.0 5.6 5.5 3.9 4.6 4.7 5.0 4.6 6.1 7.1 6.9 6.1 6.6 6.0 4.8 3.3 5.7 6.2 5.7 7.0 6.8 5.5 6.5 6.5 6.5 6.5 6.5 6.5 6.5 6.5 6.5 6.5 6.5 6.5 6.5 5.7 6.0 6.8 7.1 6.4 5.4 4.8
7.8 7.3 6.6 5.8 6.0 5.1 4.3 4.8 5.4 5.8 5.4 5.7 6.3 6.0 6.5 7.5 6.4 6.2 4.8 6.0 6.7 6.1 6.5 6.8 6.5 6.5 6.5 6.5 6.5 6.5 6.5 6.5 6.5 6.5 6.5 6.5 6.5 6.5 6.8 7.0 6.8 7.0 7.1 5.6 4.6
7.4 7.4 7.0 5.8 6.0 5.3 6.2 6.4 7.6 6.8 6.6 7.0 5.7 6.7 6.4 6.4 6.5 6.9 6.6 7.0 6.6 6.5 6.6 6.5 6.5 6.5 6.5 6.5 6.5 6.5 6.5 6.5 6.5 6.5 6.5 6.5 6.5 6.5 6.6 6.7 7.0 7.0 7.2 6.8 5.1
7.1 7.1 7.0 6.6 6.4 5.8 6.7 5.9 9.1 7.0 6.5 6.8 6.6 6.4 5.5 6.5 6.9 6.4 7.1 6.1 6.6 6.5 6.5 6.5 6.5 6.5 6.5 6.5 6.5 6.5 6.5 6.5 6.5 6.5 6.5 6.5 6.5 6.5 6.5 6.9 7.1 7.1 6.0 5.6 4.9
6.9 6.9 6.9 7.3 6.7 6.8 6.5 6.7 7.1 7.4 6.5 6.5 6.7 7.3 7.3 6.9 6.7 6.6 6.9 6.7 6.5 6.5 6.5 6.5 6.6 6.5 6.5 6.5 6.5 6.5 6.5 6.5 6.5 6.5 6.5 6.5 6.5 6.5 6.5 6.5 6.5 6.9 6.9 5.5 4.6
6.8 6.9 6.9 7.1 7.5 6.8 6.7 6.3 6.3 6.5 6.5 6.5 6.7 7.9 7.5 7.0 6.9 6.7 6.3 6.4 6.5 6.5 6.5 6.5 6.5 6.5 6.5 6.5 6.5 6.5 6.5 6.5 6.5 6.5 6.5 6.5 6.5 6.5 6.5 6.5 6.5 6.5 6.8 5.3 3.7
6.8 6.9 7.3 6.6 6.7 6.6 7.5 6.2 5.4 6.5 6.5 6.5 6.7 6.5 6.5 6.8 6.6 6.7 7.0 6.6 6.2 6.5 6.5 6.5 6.9 6.5 6.5 6.5 6.5 6.5 6.5 6.5 6.5 6.5 6.5 6.5 6.5 6.5 6.5 6.5 6.5 6.6 6.6 5.4 3.3
6.6 7.0 7.0 6.9 6.2 6.8 6.9 5.7 6.5 6.5 6.5 6.5 6.5 6.5 6.5 6.5 6.5 6.5 6.5 6.5 6.5 6.5 6.5 6.5 6.5 6.5 6.6 6.5 6.5 6.5 6.5 6.5 6.5 6.5 6.5 6.5 6.5 6.5 6.5 6.5 6.5 6.5 6.8 5.2 3.3
6.6 6.9 6.9 6.4 6.7 6.3 6.5 6.5 6.5 6.5 6.5 6.5 6.5 6.5 6.5 6.5 6.5 6.5 6.5 6.5 6.5 6.5 6.5 6.5 6.5 6.5 6.5 6.5 6.5 6.5 6.5 6.5 6.5 6.5 6.5 6.5 6.5 6.5 6.5 6.6 6.8 6.0 5.9 5.1 3.5
6.9 6.0 6.2 6.7 6.6 6.6 6.6 6.5 6.5 6.5 6.5 6.5 6.5 6.5 6.5 6.5 6.5 6.5 6.5 6.5 6.5 6.5 6.5 6.5 6.5 6.5 6.5 6.5 6.5 6.5 6.5 6.5 6.5 6.5 6.5 6.5 6.5 6.5 6.5 6.5 6.6 6.7 6.1 6.6 5.4
6.6 6.2 6.3 6.6 6.8 5.9 6.5 6.5 6.5 6.5 6.5 6.5 6.5 6.5 6.5 6.5 6.5 6.5 6.5 6.5 6.5 6.5 6.5 6.5 6.5 6.5 6.5 6.6 6.5 6.5 6.5 6.5 6.5 6.5 6.5 6.5 6.5 6.5 6.5 6.5 6.5 6.5 6.8 6.9 6.7
6.1 6.3 6.5 6.1 6.6 6.6 6.5 6.5 6.5 6.8 6.6 6.5 6.5 6.5 6.5 6.5 6.5 6.5 6.5 6.5 6.5 6.5 6.5 6.5 6.5 6.5 6.5 6.5 6.5 6.5 6.5 6.5 6.5 6.5 6.5 6.5 6.5 6.5 6.5 6.5 6.5 6.5 6.7 7.0 7.1
4.7 6.5 5.1 6.2 6.5 6.5 6.5 6.5 6.6 6.5 6.7 6.5 6.5 6.5 6.5 6.5 6.5 6.5 6.5 6.5 6.4 6.5 6.5 6.5 6.5 6.5 6.5 6.5 6.5 6.5 6.5 6.5 6.5 6.5 6.5 6.5 6.5 6.5 6.5 6.5 6.6 6.6 6.9 7.2 6.8
5.6 5.9 6.1 7.0 6.5 6.5 6.5 6.5 6.5 6.5 6.5 6.5 6.5 6.5 6.5 6.5 6.5 6.5 6.5 6.4 6.2 6.5 6.5 6.5 6.5 6.5 6.5 6.5 6.5 6.5 6.5 6.5 6.5 6.5 6.5 6.5 6.5 6.5 6.5 6.5 6.7 6.8 7.1 6.4 4.8
5.9 6.5 6.1 6.5 6.1 6.5 6.5 6.5 6.5 6.6 6.5 6.5 6.5 6.5 6.5 6.5 6.5 6.5 6.5 6.5 6.0 6.5 4.6 6.2 6.5 6.5 6.5 6.5 6.5 6.5 6.5 6.5 6.5 6.5 6.5 6.5 6.5 6.5 6.5 6.5 6.6 6.9 7.0 6.6 3.9
5.7 6.5 6.4 6.5 6.5 6.5 6.5 6.5 6.5 6.5 6.5 6.5 6.5 6.5 6.5 6.5 6.5 6.5 6.5 6.5 6.5 5.5 6.5 6.5 6.5 6.5 6.5 6.5 6.5 6.5 6.5 6.5 6.5 6.5 6.5 6.5 6.5 6.5 6.5 6.5 6.6 7.0 7.0 6.4 4.2
6.5 6.5 6.6 6.5 6.6 6.5 6.5 6.5 6.5 6.5 6.5 6.5 6.5 6.5 6.5 6.5 6.5 6.5 6.5 6.5 6.5 6.5 6.5 6.5 6.5 6.5 6.5 6.5 6.5 6.5 6.5 6.5 6.5 6.5 6.5 6.5 6.5 6.5 6.7 6.9 6.9 7.0 7.1 7.0 6.8
5.9 6.3 6.2 6.5 6.5 6.5 6.5 6.5 6.5 6.5 6.4 6.5 6.5 6.5 6.5 6.5 6.5 6.4 6.4 6.5 6.5 6.5 6.5 6.5 6.5 6.5 6.5 6.5 6.5 6.5 6.5 6.5 6.5 6.5 6.5 6.5 6.5 6.5 6.5 6.5 6.7 7.0 7.1 7.0 6.5
Wind_Speed
11 10 14 16 17 17 15 14 12 11 12 15 17 19 20 20 22 3 5 3 1 4 3 1 2 2 2 3 2 2 3 3 3 6 1 2 7 1 3 2 2 2 2 1 7
13 11 3 4 10 15 16 16 13 12 11 13 17 18 21 21 4 7 6 6 3 4 1 2 0 2 2 2 1 2 3 7 2 3 1 3 3 7 1 5 2 3 2 2 8
15 13 11 9 11 15 19 16 15 12 10 10 14 18 20 15 5 3 8 2 2 3 2 1 2 1 1 1 2 3 4 3 1 3 3 2 4 2 2 1 5 2 2 3 7
17 14 12 10 8 14 19 19 17 13 10 8 10 15 23 4 4 1 6 3 3 1 2 2 2 2 2 3 2 2 3 3 0 1 3 6 6 4 6 9 5 5 3 4 10
20 16 14 15 8 10 18 20 17 14 11 8 6 10 6 3 7 3 11 8 4 1 2 2 3 3 3 2 2 3 2 2 3 7 7 4 12 6 14 11 12 10 8 11 12
24 20 17 16 11 8 8 21 17 15 11 8 4 7 1 7 3 3 11 4 4 2 1 1 3 3 2 2 2 1 3 6 6 10 6 6 7 2 14 1 8 5 8 8 10
25 23 20 17 15 10 9 20 19 16 13 9 4 1 4 13 0 4 7 2 2 3 1 1 3 2 3 0 0 1 5 7 7 3 6 6 6 10 17 5 7 4 3 6 10
27 27 22 19 16 11 7 21 20 17 13 9 4 2 7 6 10 13 6 6 2 2 1 1 1 3 1 1 3 1 2 4 1 3 2 7 9 7 5 2 8 10 7 7 10
30 28 25 21 18 14 5 23 20 17 14 10 3 3 8 3 4 12 7 6 3 2 0 1 2 2 2 3 2 4 4 4 7 1 2 6 7 3 2 7 11 12 12 10 12
33 30 28 25 20 15 8 24 16 14 6 4 1 3 6 5 4 4 5 9 3 5 2 2 3 3 3 6 9 5 4 4 7 1 2 4 14 15 10 11 15 18 16 14 14
34 33 31 27 23 17 7 7 9 4 9 9 9 5 2 3 3 4 4 10 6 4 9 3 6 13 17 12 3 5 3 6 5 4 7 15 17 14 15 15 22 20 16 13 15
35 34 33 29 24 20 9 10 21 8 6 13 3 15 9 3 2 6 9 10 11 15 9 5 17 14 7 9 10 7 8 11 14 11 6 10 16 18 19 23 19 21 18 16 15
36 35 34 30 22 9 15 26 14 6 5 10 15 8 5 9 6 6 13 5 9 14 20 19 6 15 13 10 10 9 11 8 11 9 8 10 16 8 7 14 15 16 16 14 11
35 35 34 29 15 11 18 21 16 5 4 11 13 15 14 5 8 12 13 6 5 19 11 13 10 8 14 15 13 10 12 10 9 5 8 3 10 10 7 12 12 17 12 10 8
34 35 36 36 9 17 18 12 15 4 9 14 17 10 18 21 9 13 10 4 9 9 9 10 10 19 15 9 16 7 6 9 4 6 4 5 7 3 1 6 14 14 13 7 5
32 35 38 19 9 13 18 13 9 9 13 11 13 19 19 24 17 7 13 4 4 8 4 7 2 9 8 6 18 9 7 4 3 2 8 13 11 15 8 13 5 12 8 7 8
31 36 28 15 22 17 12 11 14 13 11 14 12 21 24 18 27 14 18 21 11 10 12 5 8 3 4 7 10 10 9 2 3 4 10 6 13 19 6 8 10 10 9 8 9
28 32 27 17 19 14 12 15 19 18 23 14 16 22 22 18 21 26 20 19 23 10 9 14 10 15 9 7 10 18 11 6 8 5 7 4 9 6 17 17 13 8 8 5 11
27 15 14 16 16 11 13 18 11 27 29 18 23 22 15 17 13 23 29 29 23 22 15 11 11 7 10 6 12 7 11 8 5 4 7 9 13 10 8 11 7 12 9 9 11
14 11 14 16 15 9 7 27 6 15 24 22 18 13 19 26 15 23 25 22 21 28 13 7 4 6 15 13 14 9 12 4 3 6 9 7 9 11 5 13 13 12 8 7 12
7 7 7 12 6 8 11 8 18 20 19 24 16 10 14 22 19 24 26 10 30 23 21 5 4 2 11 12 19 8 8 5 6 5 6 5 8 5 12 12 11 12 8 11 14
3 6 5 12 9 3 7 8 10 15 25 22 10 5 15 22 20 19 19 24 21 23 29 21 4 6 10 1 8 20 17 13 7 7 6 6 13 4 4 5 7 9 7 11 12
5 2 5 10 9 13 4 9 15 18 17 27 7 5 10 16 11 16 18 12 10 25 22 20 7 6 4 7 4 13 14 16 13 2 15 7 11 3 1 2 1 6 10 10 9
3 4 2 6 3 12 10 12 20 13 20 13 14 9 8 12 4 19 9 3 11 26 10 22 5 20 17 5 10 10 20 17 18 10 22 16 26 15 4 2 4 8 11 11 10
3 4 2 5 9 12 23 15 21 9 22 7 5 16 10 8 14 8 12 5 4 12 11 13 15 14 15 2 9 12 18 21 20 25 13 26 20 24 12 9 10 11 12 12 10
4 4 3 2 7 18 17 21 29 28 13 21 12 12 6 10 9 10 14 6 7 3 14 3 4 7 12 12 9 4 11 25 26 24 22 28 30 6 2 6 9 14 15 14 14
3 2 3 6 5 13 10 15 25 25 7 32 13 13 5 3 9 8 6 7 10 14 14 11 6 4 8 6 6 4 22 19 14 20 18 22 26 6 8 13 16 17 16 16 15
Wind_Direction
278 297 333 245 252 251 255 267 274 283 297 309 318 324 328 336 330 324 283 265 243 328 328 311 83 56 74 97 89 136 102 189 227 170 177 17 3 293 343 317 313 218 159 350 122
269 273 318 358 338 281 247 261 266 275 289 304 313 321 326 337 332 286 276 297 283 342 45 72 136 31 79 89 85 121 174 210 212 195 245 317 307 307 134 352 302 310 96 85 158
260 264 256 275 297 309 249 244 253 256 272 295 310 318 323 331 324 270 342 37 319 39 93 105 106 102 128 160 185 158 211 204 214 232 281 268 270 254 75 245 230 228 231 191 190
248 248 249 256 291 293 238 240 245 249 254 276 306 319 321 302 267 47 344 0 324 314 105 101 95 126 161 207 156 232 233 197 311 158 306 295 298 273 190 234 236 210 212 188 212
242 238 240 250 246 349 231 229 240 238 243 257 288 323 340 253 250 357 17 333 326 21 83 117 152 152 194 187 159 205 278 186 290 299 276 284 263 280 274 259 263 280 257 242 238
240 235 233 242 239 246 303 229 230 231 226 239 273 328 233 243 272 59 8 359 14 27 85 117 170 184 148 182 190 190 282 274 263 256 244 236 261 260 263 291 282 274 266 254 245
246 230 228 231 240 224 289 222 221 218 214 220 204 139 236 234 333 316 334 323 320 337 111 126 138 162 141 198 28 153 303 309 227 251 236 212 247 224 254 293 278 281 236 254 263
238 234 223 225 229 233 259 215 214 202 204 197 190 139 246 245 261 275 262 274 253 248 230 196 169 108 148 117 26 355 107 304 309 171 337 201 265 252 273 257 312 295 276 258 269
234 231 221 219 217 232 241 207 198 183 185 167 171 183 263 288 202 244 209 207 165 142 311 81 88 117 91 126 346 11 261 247 304 213 151 217 278 294 121 313 304 301 285 277 284
232 228 217 210 212 219 226 193 159 117 177 131 269 180 238 220 206 196 195 179 158 130 119 108 62 164 134 171 228 187 226 233 250 65 116 239 261 277 278 292 290 292 291 284 281
227 224 215 207 204 188 179 149 144 190 207 188 177 244 102 308 261 203 179 155 132 148 185 178 202 212 196 204 157 134 196 268 265 224 315 269 265 265 281 282 283 280 272 269 265
220 219 211 204 201 181 207 224 192 137 186 235 142 237 262 24 306 208 161 160 179 197 148 196 232 222 214 191 212 209 237 259 288 282 200 277 267 267 259 260 257 264 271 266 271
217 214 208 199 186 174 216 230 195 157 177 189 214 201 223 192 231 227 179 156 186 181 193 205 214 199 196 197 197 222 218 229 255 314 266 293 279 257 249 249 258 256 254 263 267
212 209 202 185 187 199 224 214 222 229 218 196 197 217 215 168 245 201 190 158 186 201 172 227 211 156 199 221 198 238 212 223 235 274 272 1 294 279 251 251 266 276 256 255 272
207 204 194 182 169 192 212 189 210 197 211 193 183 172 188 195 125 201 175 169 176 167 171 214 187 200 209 196 183 218 172 193 187 209 310 241 275 232 210 245 251 251 249 228 223
203 198 190 192 210 216 197 165 215 214 199 156 142 174 158 201 196 130 176 199 158 166 241 215 192 196 207 188 171 146 125 107 84 158 259 212 219 279 217 235 241 254 256 208 189
197 192 184 182 208 194 187 196 213 208 156 152 162 172 173 178 199 177 184 192 178 180 202 187 218 206 166 121 166 166 140 192 220 191 249 186 212 258 254 243 231 231 236 201 186
190 186 183 198 196 177 201 201 231 173 193 147 152 169 184 157 200 193 184 195 213 205 182 203 222 190 182 177 170 190 179 182 206 206 276 139 237 252 225 232 236 239 249 210 190
185 184 188 193 183 198 206 219 218 163 186 149 146 161 197 183 164 182 200 203 198 200 205 188 229 174 188 177 150 179 217 217 269 224 275 251 268 268 240 236 225 236 232 216 191
185 181 194 177 185 218 221 219 216 212 187 165 165 180 174 179 167 184 188 209 207 201 200 196 206 199 189 195 223 199 139 166 211 217 234 242 262 240 211 220 228 237 229 198 185
176 183 162 142 150 219 222 221 224 256 257 196 179 154 174 171 182 185 191 188 195 192 198 166 188 116 150 203 185 174 194 200 168 191 220 275 262 211 220 205 219 240 213 194 184
115 175 152 144 195 187 237 191 199 248 239 208 190 131 163 173 176 183 193 199 190 178 192 200 140 185 197 135 208 211 204 176 192 194 232 251 265 150 117 157 198 246 203 178 179
126 123 151 156 204 216 215 204 197 216 233 209 204 146 168 165 167 185 200 197 174 181 185 180 205 189 234 263 186 213 209 211 216 108 218 188 252 138 273 159 282 221 175 161 149
147 140 203 180 180 216 202 202 203 233 234 198 203 156 146 170 175 188 181 161 183 190 163 165 160 207 213 208 155 196 202 205 198 215 238 226 252 241 222 205 156 176 170 158 149
163 190 133 189 220 208 205 183 197 209 215 204 187 194 176 160 186 171 172 131 101 181 166 170 210 205 223 75 181 203 193 198 198 218 205 248 234 256 255 221 201 173 159 152 150
153 152 156 203 167 190 210 203 193 203 189 215 175 188 155 163 197 175 160 156 164 110 175 177 187 170 228 220 218 221 218 219 213 222 232 249 261 258 264 147 177 190 173 168 165
182 131 119 165 213 193 205 198 193 174 231 204 187 171 106 122 108 89 79 96 145 163 176 165 150 143 229 175 160 229 231 231 225 232 231 234 249 202 220 206 192 186 181 169 157